Tracking 19212 objects as of 17-Jul-2018
HD Live streaming from Space Station
objects crossing your sky now

FLOCK 3P 74

Track FLOCK 3P 74 now!
10-day predictions
FLOCK 3P 74 is classified as:


NORAD ID: 42048
Int'l Code: 2017-008DE
Perigee: 494.7 km
Apogee: 504.2 km
Inclination: 97.5 °
Period: 94.5 minutes
Semi major axis: 6870 km
RCS: Unknown
Launch date: February 15, 2017
Source: United States (US)
Launch site: SRIHARIKOTA (SRI)
aabbcc
Your satellite tracking list
Your tracking list is empty




NASA's NSSDC Master Catalog

Two Line Element Set (TLE):
1 42048U 17008DE  18197.74716857 +.00001087 +00000-0 +47153-4 0  9995
2 42048 097.4511 262.6233 0006923 247.0851 112.9656 15.24483014077778
Source of the keplerian elements: AFSPC